CZ-6A DEB, 61368

Orbit data source: Space-Track

CZ-6A DEB, 61368 is space debris in LEO originally from a launch on Tue, 06 Aug 2024 UTC launched from the Taiyaun Space Center, China (TSC). Debris objects in space refer to the collection of defunct objects orbiting the Earth. Examples of debris include non-operational satellites, rocket bodies, and fragments generated from explosions, collisions, or faulty payload assembly.

Loading next visibility...
Identifier
61368, 2024-140WH
Orbit
LEO
Country
Flag of CNCN / PRC
Related business
Manufacturer
SAST
Mission
Spacecraft
Bus & Motor
Unknown
Mass
Unknown
Launch date (UTC)
2024-08-06 (2 years ago)
Launch vehicle
Unknown
Launch site
Taiyaun Space Center, China (TSC)
Object type
Payload
Rocket body
Debris
Shape & HBR
Unknown shape, 0.1 m
Radar Cross Section
Medium (>0.1 m² and <1 m²)

Expand to show TLE details & history
Last TLE update: 15 hours ago

TLE from 15 hours ago
0 CZ-6A DEB
1 61368U 24140WH  26171.25639750  .00001978  00000-0  10896-2 0  9990
2 61368  88.8335 263.0205 0112772 235.9122 123.1319 14.08070688 91892
Epoch: 2026-06-20T06:09Z
TLE epoch observation values (Epoch: 2026-06-20T06:09:12.743Z)
Latitude
-0.00005°
Longitude
-97.75623°
Altitude
914.317 km
Speed
7.372 km/s
True Right ascension
17h 32m 04s
True Declination
0° 00' 00"
Sunlit
Object was in full shadow at epoch
Visualization orbit readout
Latitude
Unknown
Longitude
Unknown
Altitude
Unknown
Speed
Unknown
Apparent Right ascension
Unknown
Apparent Declination
Unknown
Sunlit
N/A
Visualization observer readout
Local Sidereal Time
08:33:06
Azimuth
Unknown
Elevation
Unknown
Doppler factor
Unknown
Orbital elements
Apogee altitude
944.609 km
Perigee altitude
781.291 km
Semi-major axis
7,241.087 km
Eccentricity
0.01128
Inclination
88.8335°
RAAN
263.0205°
Arg. of periapsis
235.9122°
True anomaly
124.20573°
Mean anomaly
123.1319°
Eccentric anomaly
123.66965°
Mean motion
3.52239 °/min
Orbital period
102.2 mins
BSTAR
0.0010896
Loading maneuver chart data...
Computing Atmospheric mass density...
Loading historical data...
Loading historical data...
Loading historical data...
Loading historical data...
Loading historical data...
Loading historical data...
Loading historical data...

Documentation

Showing up to 5 results
|